Powrót do katalogu

INTELSAT 33E DEB

AktywnyMEO
NORAD 61990·DEBRIS· XX

Wystrzelony Aug 24, 2016 z Guiana Space Centre

Loading…

Następne Przeloty (najbliższe 24 godziny)

TLE

ŚwieżeSource: Space-Track

Epoka: Sep 13, 2026, 08:20 UTC

1 61990U 16053G   26256.34772299 -.00000252  00000-0  00000-0 0  9994
2 61990   1.6819  75.2504 0114228 347.0838  13.4554  1.01392814  7048

Śledź INTELSAT 33E DEB w czasie rzeczywistym z AllMySat

Download on the App Store